SNAP 1

Satellite information

Favourite Embed

Satellite Type and Status

PAYLOADIN ORBIT

Key statistics

Satellite SNAP 1 at a glance.

Uptime

9141

Days in orbit

Revolutions

≈ 14.7

Per day

Orbit

SSO

Sun Synchronous Orbit

Inclination

97.7

Latest

Satellite identification and parameters

Extended collection of information and parameters for SNAP 1.

Object identification

Identified? True

Debris? False

Object name: SNAP 1

International designator: 2000-033C

Object number (NORAD): 26386

Object ID (CCSDS): 26386

Country: UNITED KINGDOM (UK)

Current information (Y/N): Y

RCS size: MEDIUM

Orbital parameters

Period: 97.712 minutes

Inclination: 97.7302 deg

SMA: 7027.349 km

Apoapsis: 655.415 km

Periapsis: 643.013 km

RAAN: 185.7752 deg

Eccentricy: 0.0008824

Argument of periapsis: 303.6907 deg

Mean anomaly: 56.346 deg

Mean motion: 14.73721797 rev/day

Mean motion (dot): 0.00000856 rev/day2

B* drag term: 0.00013825 1/REarth

Two-line elements (TLE)

Creation date: July 8, 2025, 2:27 a.m.

Reference frame: TEME

Reference center: EARTH

Epoch: July 7, 2025, 9:24 p.m. UTC

TLE line 0: 0 SNAP 1

TLE line 1: 1 26386U 00033C 25188.89199145 .00000856 00000-0 13825-3 0 9992

TLE line 2: 2 26386 97.7302 185.7752 0008824 303.6907 56.3460 14.73721797597722

Live tracking on map

Real-time ground track for satellite SNAP 1.

In-orbit conjunctions

There are no conjunctions computed for SNAP 1, at the moment. Check back to stay up to date, as we update our databases every day.

Go to all conjunctions

Associated space launch

Civilian navigation satellite equivalent to the purely military Parus

SNAP 1 was lifted into orbit during the mission ‘Kosmos-3M | Nadezhda 9’, on board a Kosmos-3M space rocket.

The launch took place on June 28, 2000, 10:37 a.m. from 132/1 (132L).

For more information about the launch, click the button.

Launch to space Kosmos-3M | Nadezhda 9
Kosmos-3M | Nadezhda 9

Agency: N/A

Status: Launch Successful

Launch date: June 28, 2000, 10:37 a.m. UTC

Rocket: Kosmos-3M

Launch pad: 132/1 (132L)

Location: Plesetsk Cosmodrome, Russian Federation

...

Latest news about this satellite

There are no fresh news available about this satellite. Check back as we update our databases every day.


Newsletter sign-up

Weekly statistics, charts and insights to help you stay on top of the space industry.